Tracking 28779 objects as of 15-Apr-2024
HD Live streaming from Space Station
objects crossing your sky now

FENGYUN 1C DEB

Track FENGYUN 1C DEB now!
10-day predictions


NORAD ID: 31624
Int'l Code: 1999-025CAE
Perigee: 678.2 km
Apogee: 736.0 km
Inclination: 99.6 °
Period: 98.8 minutes
Semi major axis: 7078 km
RCS: 0.0067 m2 (small)
Launch date: May 10, 1999
Source: People's Republic of China (PRC)
Launch site: Taiyaun Space Center, China (TSC)

Note: This is SATELLITE DEBRIS
Your satellite tracking list
Your tracking list is empty




NASA's NSSDC Master Catalog

Two Line Element Set (TLE):
1 31624U 99025CAE 24105.24573263  .00015897  00000-0  34330-2 0  9990
2 31624  99.6496 219.7558 0040858 290.5542  98.6988 14.57908051885582
Source of the keplerian elements: AFSPC